Time,TemperatureF,DewpointF,PressureIn,WindDirection,WindDirectionDegrees,WindSpeedMPH,WindSpeedGustMPH,Humidity,HourlyPrecipIn,Conditions,Clouds,dailyrainin,SoftwareType,DateUTC
2013-10-02 00:05:00,61.0,58.0,30.10,NW,323,0.0,3.0,91,0.00,,,0.00,,2013-10-02 04:05:00,
2013-10-02 00:14:00,61.0,58.0,30.10,NW,323,0.0,3.0,91,0.00,,,0.00,,2013-10-02 04:14:00,
2013-10-02 00:25:00,61.0,58.0,30.11,North,5,1.0,5.0,91,0.00,,,0.00,,2013-10-02 04:25:00,
2013-10-02 00:44:00,61.0,58.0,30.11,NW,326,2.0,5.0,91,0.00,,,0.00,,2013-10-02 04:44:00,
2013-10-02 00:54:00,61.0,58.0,30.11,NNW,346,0.0,6.0,91,0.00,,,0.00,,2013-10-02 04:54:00,
2013-10-02 01:13:00,61.0,58.0,30.11,North,355,3.0,5.0,91,0.00,,,0.00,,2013-10-02 05:13:00,
2013-10-02 01:23:00,61.0,58.0,30.11,North,355,3.0,5.0,91,0.00,,,0.00,,2013-10-02 05:23:00,
2013-10-02 01:33:00,61.0,58.0,30.11,North,355,3.0,5.0,91,0.00,,,0.00,,2013-10-02 05:33:00,
2013-10-02 01:43:00,61.0,58.0,30.11,North,355,3.0,5.0,91,0.00,,,0.00,,2013-10-02 05:43:00,
2013-10-02 01:53:00,61.0,58.0,30.11,NW,309,3.0,6.0,91,0.00,,,0.00,,2013-10-02 05:53:00,
2013-10-02 02:12:00,61.0,58.0,30.11,NNW,338,6.0,7.0,90,0.00,,,0.00,,2013-10-02 06:12:00,
2013-10-02 02:22:00,61.0,58.0,30.11,NNW,338,6.0,7.0,90,0.00,,,0.00,,2013-10-02 06:22:00,
2013-10-02 02:32:00,61.0,58.0,30.11,NNW,338,6.0,7.0,90,0.00,,,0.00,,2013-10-02 06:32:00,
2013-10-02 02:42:00,61.0,58.0,30.11,NNW,338,6.0,7.0,90,0.00,,,0.00,,2013-10-02 06:42:00,
2013-10-02 02:52:00,61.0,58.0,30.11,WNW,300,4.0,10.0,90,0.00,,,0.00,,2013-10-02 06:52:00,
2013-10-02 03:12:00,61.0,58.0,30.11,NW,318,2.0,10.0,91,0.00,,,0.00,,2013-10-02 07:12:00,
2013-10-02 03:22:00,61.0,58.0,30.11,North,360,6.0,6.0,91,0.00,,,0.00,,2013-10-02 07:22:00,
2013-10-02 03:32:00,61.0,58.0,30.11,North,360,6.0,6.0,91,0.00,,,0.00,,2013-10-02 07:32:00,
2013-10-02 03:42:00,61.0,58.0,30.11,North,360,6.0,6.0,91,0.00,,,0.00,,2013-10-02 07:42:00,
2013-10-02 03:52:00,60.0,58.0,30.11,NW,313,0.0,3.0,92,0.00,,,0.00,,2013-10-02 07:52:00,
2013-10-02 04:03:00,60.0,58.0,30.11,NW,313,0.0,3.0,92,0.00,,,0.00,,2013-10-02 08:03:00,
2013-10-02 04:11:00,60.0,58.0,30.11,NW,313,0.0,3.0,92,0.00,,,0.00,,2013-10-02 08:11:00,
2013-10-02 04:22:00,60.0,58.0,30.11,WSW,255,0.0,11.0,93,0.00,,,0.00,,2013-10-02 08:22:00,
2013-10-02 04:42:00,60.0,58.0,30.11,West,269,1.0,10.0,93,0.00,,,0.00,,2013-10-02 08:42:00,
2013-10-02 04:52:00,60.0,58.0,30.11,West,269,1.0,10.0,93,0.00,,,0.00,,2013-10-02 08:52:00,
2013-10-02 05:11:00,60.0,58.0,30.11,NNW,327,6.0,9.0,94,0.00,,,0.00,,2013-10-02 09:11:00,
2013-10-02 05:22:00,60.0,58.0,30.11,NW,306,0.0,13.0,94,0.00,,,0.00,,2013-10-02 09:22:00,
2013-10-02 05:33:00,60.0,58.0,30.11,NW,306,0.0,13.0,94,0.00,,,0.00,,2013-10-02 09:33:00,
2013-10-02 05:43:00,60.0,58.0,30.11,NW,306,0.0,13.0,94,0.00,,,0.00,,2013-10-02 09:43:00,
2013-10-02 05:54:00,60.0,58.0,30.11,NW,306,0.0,13.0,94,0.00,,,0.00,,2013-10-02 09:54:00,
2013-10-02 06:12:00,59.0,58.0,30.11,NNW,348,5.0,10.0,95,0.00,,,0.00,,2013-10-02 10:12:00,
2013-10-02 06:23:00,59.0,58.0,30.11,NNW,348,5.0,10.0,95,0.00,,,0.00,,2013-10-02 10:23:00,
2013-10-02 06:42:00,59.0,58.0,30.11,North,5,4.0,15.0,95,0.00,,,0.00,,2013-10-02 10:42:00,
2013-10-02 06:53:00,59.0,58.0,30.11,WNW,302,5.0,15.0,96,0.00,,,0.00,,2013-10-02 10:53:00,
2013-10-02 07:12:00,59.0,58.0,30.12,WNW,288,6.0,9.0,96,0.00,,,0.00,,2013-10-02 11:12:00,
2013-10-02 07:22:00,59.0,58.0,30.11,NW,324,2.0,13.0,97,0.00,,,0.00,,2013-10-02 11:22:00,
2013-10-02 07:52:00,58.0,57.0,30.12,NW,306,6.0,11.0,98,0.00,,,0.00,,2013-10-02 11:52:00,
2013-10-02 08:12:00,58.0,57.0,30.13,WNW,296,0.0,11.0,98,0.00,,,0.00,,2013-10-02 12:12:00,
2013-10-02 08:22:00,58.0,57.0,30.13,WNW,296,0.0,11.0,98,0.00,,,0.00,,2013-10-02 12:22:00,
2013-10-02 08:42:00,60.0,59.0,30.14,West,267,1.0,12.0,97,0.00,,,0.00,,2013-10-02 12:42:00,
2013-10-02 08:52:00,60.0,59.0,30.14,West,267,1.0,12.0,97,0.00,,,0.00,,2013-10-02 12:52:00,
2013-10-02 09:11:00,60.0,59.0,30.15,WNW,289,0.0,6.0,96,0.00,,,0.00,,2013-10-02 13:11:00,
2013-10-02 09:22:00,60.0,59.0,30.15,WNW,289,0.0,6.0,96,0.00,,,0.00,,2013-10-02 13:22:00,
2013-10-02 09:52:00,62.0,61.0,30.16,SSW,213,1.0,7.0,96,0.00,,,0.00,,2013-10-02 13:52:00,
2013-10-02 10:11:00,62.0,61.0,30.15,SW,222,4.0,11.0,95,0.00,,,0.00,,2013-10-02 14:11:00,
2013-10-02 10:21:00,63.0,61.0,30.16,SW,225,0.0,11.0,94,0.00,,,0.00,,2013-10-02 14:21:00,
2013-10-02 10:42:00,64.0,62.0,30.16,WSW,248,2.0,9.0,92,0.00,,,0.00,,2013-10-02 14:42:00,
2013-10-02 10:52:00,64.0,62.0,30.16,SW,236,2.0,11.0,92,0.00,,,0.00,,2013-10-02 14:52:00,
2013-10-02 11:11:00,66.0,63.0,30.16,SW,231,2.0,10.0,90,0.00,,,0.00,,2013-10-02 15:11:00,
2013-10-02 11:22:00,66.0,62.0,30.16,WNW,290,2.0,10.0,88,0.00,,,0.00,,2013-10-02 15:22:00,
2013-10-02 11:43:00,65.0,62.0,30.16,WSW,238,4.0,16.0,89,0.00,,,0.00,,2013-10-02 15:43:00,
2013-10-02 11:54:00,66.0,63.0,30.16,SW,215,0.0,11.0,89,0.00,,,0.00,,2013-10-02 15:54:00,
2013-10-02 12:03:00,66.0,63.0,30.16,SW,215,0.0,11.0,89,0.00,,,0.00,,2013-10-02 16:03:00,
2013-10-02 12:12:00,66.0,63.0,30.16,SW,215,0.0,11.0,89,0.00,,,0.00,,2013-10-02 16:12:00,
2013-10-02 12:23:00,66.0,63.0,30.16,SW,215,0.0,11.0,89,0.00,,,0.00,,2013-10-02 16:23:00,
2013-10-02 12:43:00,68.0,64.0,30.16,West,271,4.0,10.0,88,0.00,,,0.00,,2013-10-02 16:43:00,
2013-10-02 12:53:00,68.0,64.0,30.16,West,271,4.0,10.0,88,0.00,,,0.00,,2013-10-02 16:53:00,
2013-10-02 13:02:00,68.0,64.0,30.16,West,271,4.0,10.0,88,0.00,,,0.00,,2013-10-02 17:02:00,
2013-10-02 13:12:00,68.0,64.0,30.16,West,271,4.0,10.0,88,0.00,,,0.00,,2013-10-02 17:12:00,
2013-10-02 13:23:00,70.0,65.0,30.16,SW,218,1.0,10.0,85,0.00,,,0.00,,2013-10-02 17:23:00,
2013-10-02 13:33:00,70.0,65.0,30.16,SW,218,1.0,10.0,85,0.00,,,0.00,,2013-10-02 17:33:00,
2013-10-02 13:42:00,70.0,65.0,30.16,SW,218,1.0,10.0,85,0.00,,,0.00,,2013-10-02 17:42:00,
2013-10-02 13:52:00,70.0,65.0,30.15,WNW,290,0.0,15.0,83,0.00,,,0.00,,2013-10-02 17:52:00,
2013-10-02 14:12:00,70.0,64.0,30.14,SW,223,3.0,13.0,82,0.00,,,0.00,,2013-10-02 18:12:00,
2013-10-02 14:22:00,72.0,64.0,30.14,SW,228,4.0,11.0,77,0.00,,,0.00,,2013-10-02 18:22:00,
2013-10-02 14:42:00,72.0,64.0,30.14,WNW,291,4.0,16.0,76,0.00,,,0.00,,2013-10-02 18:42:00,
2013-10-02 14:52:00,72.0,65.0,30.14,WSW,242,1.0,11.0,78,0.00,,,0.00,,2013-10-02 18:52:00,
2013-10-02 15:02:00,72.0,65.0,30.14,WSW,242,1.0,11.0,78,0.00,,,0.00,,2013-10-02 19:02:00,
2013-10-02 15:12:00,72.0,65.0,30.14,WSW,242,1.0,11.0,78,0.00,,,0.00,,2013-10-02 19:12:00,
2013-10-02 15:22:00,72.0,65.0,30.14,WSW,242,1.0,11.0,78,0.00,,,0.00,,2013-10-02 19:22:00,
2013-10-02 15:42:00,73.0,65.0,30.12,NW,319,1.0,14.0,75,0.00,,,0.00,,2013-10-02 19:42:00,
2013-10-02 15:52:00,73.0,65.0,30.12,NW,319,1.0,14.0,75,0.00,,,0.00,,2013-10-02 19:52:00,
2013-10-02 16:11:00,72.0,64.0,30.12,SW,222,3.0,10.0,76,0.00,,,0.00,,2013-10-02 20:11:00,
2013-10-02 16:22:00,72.0,64.0,30.12,SW,222,3.0,10.0,76,0.00,,,0.00,,2013-10-02 20:22:00,
2013-10-02 16:32:00,72.0,64.0,30.12,SW,222,3.0,10.0,76,0.00,,,0.00,,2013-10-02 20:32:00,
2013-10-02 16:42:00,72.0,64.0,30.12,SW,222,3.0,10.0,76,0.00,,,0.00,,2013-10-02 20:42:00,
2013-10-02 17:11:00,73.0,65.0,30.12,WSW,242,0.0,11.0,76,0.00,,,0.00,,2013-10-02 21:11:00,
2013-10-02 17:22:00,73.0,65.0,30.12,WNW,289,0.0,12.0,75,0.00,,,0.00,,2013-10-02 21:22:00,
2013-10-02 17:44:00,72.0,64.0,30.12,NNW,339,1.0,11.0,76,0.00,,,0.00,,2013-10-02 21:44:00,
2013-10-02 17:54:00,72.0,64.0,30.12,NNW,340,2.0,6.0,76,0.00,,,0.00,,2013-10-02 21:54:00,
2013-10-02 18:13:00,71.0,63.0,30.12,NW,306,0.0,5.0,77,0.00,,,0.00,,2013-10-02 22:13:00,
2013-10-02 18:24:00,70.0,64.0,30.12,NNW,348,0.0,5.0,80,0.00,,,0.00,,2013-10-02 22:24:00,
2013-10-02 18:33:00,70.0,64.0,30.12,NNW,348,0.0,5.0,80,0.00,,,0.00,,2013-10-02 22:33:00,
2013-10-02 18:44:00,70.0,64.0,30.12,NNW,348,0.0,5.0,80,0.00,,,0.00,,2013-10-02 22:44:00,
2013-10-02 18:53:00,69.0,64.0,30.13,NW,314,0.0,3.0,83,0.00,,,0.00,,2013-10-02 22:53:00,
2013-10-02 19:04:00,69.0,64.0,30.13,NW,314,0.0,3.0,83,0.00,,,0.00,,2013-10-02 23:04:00,
2013-10-02 19:12:00,69.0,64.0,30.13,NW,314,0.0,3.0,83,0.00,,,0.00,,2013-10-02 23:12:00,
2013-10-02 19:22:00,69.0,64.0,30.13,NW,314,0.0,3.0,83,0.00,,,0.00,,2013-10-02 23:22:00,
2013-10-02 19:52:00,64.0,61.0,30.13,West,271,0.0,0.0,91,0.00,,,0.00,,2013-10-02 23:52:00,
2013-10-02 20:02:00,64.0,61.0,30.13,West,271,0.0,0.0,91,0.00,,,0.00,,2013-10-03 00:02:00,
2013-10-02 20:12:00,64.0,61.0,30.13,West,271,0.0,0.0,91,0.00,,,0.00,,2013-10-03 00:12:00,
2013-10-02 20:22:00,64.0,62.0,30.13,West,271,0.0,0.0,92,0.00,,,0.00,,2013-10-03 00:22:00,
2013-10-02 20:32:00,64.0,62.0,30.13,West,271,0.0,0.0,92,0.00,,,0.00,,2013-10-03 00:32:00,
2013-10-02 20:42:00,64.0,62.0,30.13,West,271,0.0,0.0,92,0.00,,,0.00,,2013-10-03 00:42:00,
2013-10-02 20:52:00,64.0,62.0,30.13,West,271,0.0,0.0,92,0.00,,,0.00,,2013-10-03 00:52:00,
2013-10-02 21:11:00,65.0,62.0,30.14,NNW,335,2.0,4.0,91,0.00,,,0.00,,2013-10-03 01:11:00,
2013-10-02 21:23:00,66.0,63.0,30.14,NNW,331,1.0,3.0,89,0.00,,,0.00,,2013-10-03 01:23:00,
2013-10-02 21:42:00,66.0,63.0,30.14,WNW,284,0.0,3.0,89,0.00,,,0.00,,2013-10-03 01:42:00,
2013-10-02 21:52:00,66.0,63.0,30.14,WNW,284,0.0,3.0,89,0.00,,,0.00,,2013-10-03 01:52:00,
2013-10-02 22:11:00,66.0,63.0,30.14,WNW,302,2.0,3.0,89,0.00,,,0.00,,2013-10-03 02:11:00,
2013-10-02 22:22:00,66.0,63.0,30.16,West,267,0.0,4.0,89,0.00,,,0.00,,2013-10-03 02:22:00,
2013-10-02 22:52:00,65.0,62.0,30.15,WNW,301,0.0,3.0,90,0.00,,,0.00,,2013-10-03 02:52:00,
2013-10-02 23:11:00,65.0,62.0,30.15,SW,232,1.0,5.0,91,0.00,,,0.00,,2013-10-03 03:11:00,
2013-10-02 23:22:00,65.0,62.0,30.15,SW,232,0.0,1.0,91,0.00,,,0.00,,2013-10-03 03:22:00,
2013-10-02 23:44:00,65.0,62.0,30.15,WSW,248,0.0,3.0,91,0.00,,,0.00,,2013-10-03 03:44:00,
2013-10-02 23:54:00,65.0,62.0,30.16,WSW,255,0.0,6.0,90,0.00,,,0.00,,2013-10-03 03:54:00,